GPM-CORE (39574 NORAD) Tracking and Keplerian Element Data

This shows tracking and keplerian element data for the satellite.

Feedback or suggestion? Click here.




ElementValue
Catalog39574
NameGPM-CORE
Epoch Orbit62082
Epoch Day34.77591798
Epoch Year2025
RAAN177.5959
Inclination64.9795
Eccentricity0.0010334
Argument of Perigee270.1111
Mean Anonmoly89.8846
Mean Motion15.45015994
Decay Rate0.00015446
L11 39574U 14009C 25034.77591798 .00015446 00000+0 32960-3 0 9991
L22 39574 64.9795 177.5959 0010334 270.1111 89.8846 15.45015994620821



Live tracking and technical data element details for GPM-CORE (NORAD 39574). GPM-CORE can be tracked NOW for your location showing map with azimuth and elevation plus other details from your city location.







IsCatalogInMostPopularTable: catalog: 39574, numindb: 562
Update: records affected: 1



GetName: 39574 GPM-CORE

Hit Count: updated at: Thu, 15 May 2025 19:26:45 GMT